Location: Caseificio
(44.7500°N, 11.0500°E)
Time: 00:10:11
(UTC+00:00)

ERBS - Pass Details

Date: 26 May 2022
Orbit: 360 x 377 km, 57.0° (Epoch: 26 June)

Event Time Altitude Azimuth Distance (km) Brightness Sun altitude
Exits shadow 00:22:30 32° 60° (ENE) 665 3.6 -22.3°
Drops below altitude 10° 00:24:18 10° 53° (NE) 1,372 5.6 -22.2°
Sets 00:26:21 0° 51° (NE) 2,231 6.9 -22.1°
